TimeEST,TemperatureF,Dew PointF,Humidity,Sea Level PressureIn,VisibilityMPH,Wind Direction,Wind SpeedMPH,Gust SpeedMPH,PrecipitationIn,Events,Conditions,WindDirDegrees,DateUTC
12:53 AM,21.9,19.0,89,30.42,8.0,Calm,Calm,-,N/A,,Clear,0,2012-12-13 05:53:00
1:53 AM,21.0,18.0,88,30.41,7.0,Calm,Calm,-,N/A,,Clear,0,2012-12-13 06:53:00
2:53 AM,19.9,17.1,89,30.42,8.0,Calm,Calm,-,N/A,,Clear,0,2012-12-13 07:53:00
3:53 AM,19.0,15.1,85,30.41,8.0,Calm,Calm,-,N/A,,Clear,0,2012-12-13 08:53:00
4:53 AM,21.0,17.1,85,30.43,8.0,Calm,Calm,-,N/A,,Clear,0,2012-12-13 09:53:00
5:53 AM,21.0,17.1,85,30.44,7.0,Calm,Calm,-,N/A,,Clear,0,2012-12-13 10:53:00
6:53 AM,19.0,16.0,88,30.45,7.0,Calm,Calm,-,N/A,,Clear,0,2012-12-13 11:53:00
7:53 AM,19.0,15.1,85,30.46,6.0,Calm,Calm,-,N/A,,Clear,0,2012-12-13 12:53:00
8:53 AM,24.1,21.9,91,30.46,5.0,Calm,Calm,-,N/A,,Clear,0,2012-12-13 13:53:00
9:53 AM,30.0,26.1,85,30.45,5.0,Calm,Calm,-,N/A,,Clear,0,2012-12-13 14:53:00
10:53 AM,35.1,26.1,70,30.44,9.0,Calm,Calm,-,N/A,,Clear,0,2012-12-13 15:53:00
11:53 AM,39.0,26.1,60,30.41,10.0,South,3.5,-,N/A,,Clear,170,2012-12-13 16:53:00
12:53 PM,43.0,23.0,45,30.38,10.0,SE,3.5,-,N/A,,Clear,140,2012-12-13 17:53:00
1:53 PM,46.0,24.1,42,30.38,10.0,Calm,Calm,-,N/A,,Clear,0,2012-12-13 18:53:00
2:53 PM,46.9,21.0,36,30.35,10.0,SW,5.8,-,N/A,,Clear,220,2012-12-13 19:53:00
3:53 PM,46.0,21.0,37,30.35,10.0,West,4.6,-,N/A,,Clear,270,2012-12-13 20:53:00
4:53 PM,41.0,24.1,51,30.35,10.0,Calm,Calm,-,N/A,,Clear,0,2012-12-13 21:53:00
6:53 PM,30.9,26.1,82,30.34,10.0,Calm,Calm,-,N/A,,Clear,0,2012-12-13 23:53:00
8:53 PM,27.0,23.0,85,30.33,10.0,Calm,Calm,-,N/A,,Clear,0,2012-12-14 01:53:00
9:53 PM,26.1,21.9,84,30.32,10.0,Calm,Calm,-,N/A,,Clear,0,2012-12-14 02:53:00
10:53 PM,26.1,21.0,81,30.31,10.0,Calm,Calm,-,N/A,,Clear,0,2012-12-14 03:53:00
11:53 PM,25.0,21.0,85,30.29,9.0,Calm,Calm,-,N/A,,Clear,0,2012-12-14 04:53:00